Location: Fontevrault
(47.1823°N, 0.0493°E)
Time: 09:41:14
(UTC+00:00)

ATLAS CENTAUR R/B - Pass Details

Date: 16 June 2021
Orbit: 472 x 671 km, 64.6° (Epoch: 13 June)

Event Time Altitude Azimuth Distance (km) Brightness Sun altitude
Rises 23:15:37 0° 313° (NW) 2,809 5.8 -18.7°
Reaches altitude 10° 23:18:04 10° 300° (WNW) 1,940 4.6 -18.8°
Maximum altitude 23:21:45 26° 244° (WSW) 1,212 2.9 -18.9°
Enters shadow 23:22:33 25° 226° (SW) 1,264 2.8 -18.9°
